| time (UTC) | temp F | wind direction | speed MPH | gust MPH | rain 1hr in | rain 24hr in | rain mn in | humidity % | barometer mb |
| 20260507144458 | 57 | 285 | 0.0 | 2.0 | 0.00 | 0.16 | 0.13 | 67 | 1007.8 |
| 20260507143958 | 57 | 295 | 0.0 | 2.0 | 0.00 | 0.16 | 0.13 | 69 | 1007.8 |
| 20260507143458 | 57 | 324 | 0.0 | 1.0 | 0.00 | 0.16 | 0.13 | 69 | 1007.7 |
| 20260507142956 | 57 | 290 | 0.0 | 1.0 | 0.00 | 0.16 | 0.13 | 71 | 1007.8 |
| 20260507142458 | 56 | 326 | 0.0 | 1.0 | 0.00 | 0.16 | 0.13 | 70 | 1008.0 |
| 20260507141957 | 57 | 300 | 0.0 | 1.0 | 0.00 | 0.16 | 0.13 | 72 | 1007.9 |
| 20260507141719 | 56 | 329 | 0.0 | 1.0 | 0.00 | 0.16 | 0.13 | 73 | 1007.9 |
| 20260507140956 | 55 | 337 | 0.0 | 1.0 | 0.00 | 0.16 | 0.13 | 73 | 1008.0 |
| 20260507140457 | 55 | 265 | 0.0 | 1.0 | 0.00 | 0.16 | 0.13 | 74 | 1008.0 |
| 20260507135956 | 55 | 44 | 0.0 | 1.0 | 0.00 | 0.16 | 0.13 | 74 | 1008.0 |
| 20260507135458 | 55 | 298 | 0.0 | 0.0 | 0.00 | 0.16 | 0.13 | 74 | 1008.0 |
| 20260507135225 | 54 | 282 | 0.0 | 1.0 | 0.00 | 0.16 | 0.13 | 76 | 1008.0 |
| 20260507134457 | 54 | 295 | 0.0 | 1.0 | 0.00 | 0.16 | 0.13 | 76 | 1007.9 |
| 20260507133956 | 54 | 281 | 0.0 | 3.0 | 0.00 | 0.16 | 0.13 | 79 | 1007.9 |
| 20260507133456 | 54 | 252 | 0.0 | 3.0 | 0.00 | 0.16 | 0.13 | 80 | 1007.9 |
| 20260507132955 | 53 | 338 | 0.0 | 2.0 | 0.00 | 0.16 | 0.13 | 82 | 1008.1 |
| 20260507132457 | 53 | 274 | 0.0 | 2.0 | 0.00 | 0.16 | 0.13 | 82 | 1008.2 |
| 20260507131956 | 53 | 265 | 0.0 | 2.0 | 0.00 | 0.16 | 0.13 | 86 | 1008.2 |
| 20260507131457 | 52 | 319 | 0.0 | 2.0 | 0.00 | 0.16 | 0.13 | 87 | 1008.1 |
| 20260507130955 | 52 | 303 | 0.0 | 1.0 | 0.00 | 0.16 | 0.13 | 88 | 1008.0 |
| 20260507130456 | 51 | 319 | 0.0 | 1.0 | 0.00 | 0.16 | 0.13 | 88 | 1008.1 |
| 20260507125955 | 51 | 312 | 0.0 | 1.0 | 0.00 | 0.16 | 0.13 | 88 | 1008.2 |
| 20260507125455 | 51 | 330 | 0.0 | 1.0 | 0.00 | 0.16 | 0.13 | 90 | 1008.2 |
| 20260507124955 | 51 | 276 | 0.0 | 2.0 | 0.00 | 0.16 | 0.13 | 91 | 1008.3 |
| 20260507124456 | 50 | 338 | 0.0 | 2.0 | 0.00 | 0.16 | 0.13 | 92 | 1008.2 |
| 20260507123956 | 50 | 0 | 0.0 | 0.0 | 0.00 | 0.16 | 0.13 | 92 | 1008.1 |
| 20260507123715 | 50 | 319 | 0.0 | 0.0 | 0.00 | 0.16 | 0.13 | 93 | 1008.1 |
| 20260507122953 | 50 | 330 | 0.0 | 0.0 | 0.00 | 0.16 | 0.13 | 93 | 1008.1 |
| 20260507122457 | 50 | 337 | 0.0 | 0.0 | 0.00 | 0.16 | 0.13 | 94 | 1008.2 |
| 20260507121955 | 49 | 25 | 0.0 | 0.0 | 0.00 | 0.16 | 0.13 | 93 | 1008.4 |
| 20260507121719 | 49 | 306 | 0.0 | 0.0 | 0.00 | 0.16 | 0.13 | 93 | 1008.5 |
| 20260507120954 | 49 | 306 | 0.0 | 0.0 | 0.00 | 0.16 | 0.13 | 94 | 1008.5 |
| 20260507120455 | 49 | 316 | 0.0 | 0.0 | 0.00 | 0.16 | 0.13 | 94 | 1008.2 |
| 20260507115954 | 49 | 320 | 0.0 | 0.0 | 0.00 | 0.16 | 0.13 | 94 | 1008.0 |
| 20260507115454 | 49 | 320 | 0.0 | 0.0 | 0.00 | 0.16 | 0.13 | 93 | 1008.0 |
| 20260507115218 | 49 | 305 | 0.0 | 0.0 | 0.00 | 0.16 | 0.13 | 93 | 1007.9 |
| 20260507114455 | 49 | 305 | 0.0 | 0.0 | 0.00 | 0.16 | 0.13 | 94 | 1008.1 |
| 20260507113954 | 49 | 302 | 0.0 | 1.0 | 0.00 | 0.16 | 0.13 | 93 | 1008.0 |
| 20260507113454 | 49 | 302 | 0.0 | 1.0 | 0.00 | 0.16 | 0.13 | 93 | 1008.1 |
| 20260507112954 | 49 | 340 | 0.0 | 1.0 | 0.01 | 0.16 | 0.13 | 93 | 1008.1 |
| 20260507112451 | 49 | 300 | 0.0 | 1.0 | 0.01 | 0.16 | 0.13 | 93 | 1008.0 |
| 20260507111953 | 49 | 302 | 0.0 | 0.0 | 0.02 | 0.16 | 0.13 | 93 | 1008.1 |
| 20260507111717 | 48 | 298 | 0.0 | 0.0 | 0.02 | 0.16 | 0.13 | 93 | 1008.0 |
| 20260507110943 | 48 | 298 | 0.0 | 0.0 | 0.02 | 0.16 | 0.13 | 93 | 1007.7 |
| 20260507110431 | 48 | 298 | 0.0 | 0.0 | 0.02 | 0.16 | 0.13 | 93 | 1007.8 |
| 20260507110408 | 48 | 298 | 0.0 | 0.0 | 0.02 | 0.14 | 0.13 | 93 | 1007.7 |
| 20260507105431 | 48 | 298 | 0.0 | 0.0 | 0.02 | 0.14 | 0.13 | 93 | 1007.8 |
| 20260507104932 | 48 | 298 | 0.0 | 0.0 | 0.03 | 0.14 | 0.13 | 93 | 1007.8 |
| 20260507104657 | 48 | 298 | 0.0 | 0.0 | 0.03 | 0.14 | 0.13 | 93 | 1007.4 |
| 20260507103931 | 48 | 296 | 0.0 | 0.0 | 0.03 | 0.14 | 0.13 | 93 | 1007.6 |
| 20260507103430 | 48 | 296 | 0.0 | 0.0 | 0.03 | 0.14 | 0.13 | 93 | 1007.5 |
| 20260507102931 | 48 | 296 | 0.0 | 0.0 | 0.02 | 0.14 | 0.13 | 93 | 1007.5 |
| 20260507102658 | 48 | 296 | 0.0 | 0.0 | 0.03 | 0.14 | 0.13 | 93 | 1007.7 |
| 20260507101931 | 48 | 302 | 0.0 | 0.0 | 0.02 | 0.14 | 0.12 | 92 | 1007.9 |
| 20260507101432 | 48 | 302 | 0.0 | 0.0 | 0.02 | 0.14 | 0.12 | 93 | 1008.0 |
| 20260507100932 | 48 | 302 | 0.0 | 0.0 | 0.02 | 0.14 | 0.12 | 92 | 1007.9 |
| 20260507100432 | 48 | 302 | 0.0 | 0.0 | 0.03 | 0.14 | 0.12 | 92 | 1007.7 |
| 20260507095930 | 48 | 302 | 0.0 | 0.0 | 0.02 | 0.11 | 0.11 | 92 | 1007.7 |
| 20260507095432 | 48 | 302 | 0.0 | 0.0 | 0.02 | 0.11 | 0.10 | 92 | 1007.7 |
| 20260507094933 | 48 | 302 | 0.0 | 0.0 | 0.02 | 0.11 | 0.10 | 92 | 1007.7 |
| 20260507094432 | 48 | 302 | 0.0 | 0.0 | 0.02 | 0.11 | 0.10 | 92 | 1007.8 |
| 20260507093931 | 48 | 302 | 0.0 | 0.0 | 0.03 | 0.11 | 0.10 | 92 | 1007.6 |
| 20260507093432 | 48 | 302 | 0.0 | 0.0 | 0.03 | 0.11 | 0.10 | 92 | 1007.1 |
| 20260507092932 | 48 | 302 | 0.0 | 0.0 | 0.04 | 0.11 | 0.10 | 92 | 1007.1 |
| 20260507092431 | 48 | 317 | 0.0 | 0.0 | 0.04 | 0.11 | 0.09 | 92 | 1007.4 |
| 20260507091931 | 49 | 337 | 0.0 | 0.0 | 0.04 | 0.11 | 0.09 | 92 | 1007.4 |
| 20260507091431 | 49 | 338 | 0.0 | 2.0 | 0.05 | 0.11 | 0.09 | 91 | 1007.3 |
| 20260507090931 | 49 | 0 | 0.0 | 2.0 | 0.05 | 0.11 | 0.09 | 91 | 1007.2 |
| 20260507090432 | 49 | 331 | 0.0 | 0.0 | 0.05 | 0.11 | 0.09 | 91 | 1007.1 |
| 20260507085930 | 49 | 333 | 0.0 | 0.0 | 0.05 | 0.06 | 0.09 | 91 | 1007.2 |
| 20260507085431 | 49 | 305 | 0.0 | 1.0 | 0.06 | 0.06 | 0.09 | 91 | 1007.1 |
| 20260507084932 | 49 | 334 | 0.0 | 1.0 | 0.05 | 0.06 | 0.08 | 91 | 1007.1 |
| 20260507084431 | 49 | 341 | 0.0 | 1.0 | 0.05 | 0.06 | 0.08 | 91 | 1007.3 |
| 20260507083931 | 49 | 343 | 0.0 | 1.0 | 0.06 | 0.06 | 0.07 | 91 | 1007.4 |
| 20260507083432 | 50 | 327 | 0.0 | 1.0 | 0.06 | 0.06 | 0.07 | 91 | 1007.3 |
| 20260507082932 | 50 | 327 | 0.0 | 1.0 | 0.06 | 0.06 | 0.06 | 90 | 1007.2 |
| 20260507082431 | 50 | 327 | 0.0 | 0.0 | 0.05 | 0.06 | 0.06 | 90 | 1007.3 |
| 20260507082153 | 50 | 327 | 0.0 | 0.0 | 0.05 | 0.06 | 0.06 | 90 | 1007.4 |
| 20260507081430 | 50 | 327 | 0.0 | 0.0 | 0.04 | 0.06 | 0.05 | 90 | 1007.1 |
| 20260507081153 | 50 | 327 | 0.0 | 0.0 | 0.04 | 0.06 | 0.05 | 89 | 1007.1 |
| 20260507080432 | 50 | 319 | 0.0 | 0.0 | 0.03 | 0.06 | 0.04 | 89 | 1007.0 |
| 20260507075931 | 51 | 319 | 0.0 | 1.0 | 0.03 | 0.03 | 0.04 | 88 | 1007.4 |
| 20260507075431 | 51 | 317 | 0.0 | 1.0 | 0.02 | 0.03 | 0.03 | 88 | 1007.7 |
| 20260507074931 | 51 | 265 | 0.0 | 0.0 | 0.02 | 0.03 | 0.03 | 88 | 1007.5 |
| 20260507074431 | 52 | 344 | 0.0 | 0.0 | 0.02 | 0.03 | 0.02 | 87 | 1007.5 |
| 20260507073933 | 53 | 309 | 0.0 | 1.0 | 0.00 | 0.03 | 0.01 | 85 | 1007.4 |
| 20260507073431 | 53 | 309 | 0.0 | 4.0 | 0.00 | 0.03 | 0.01 | 85 | 1007.2 |
| 20260507073159 | 53 | 300 | 0.0 | 4.0 | 0.00 | 0.03 | 0.01 | 85 | 1007.4 |
| 20260507072653 | 53 | 336 | 0.0 | 0.0 | 0.00 | 0.03 | 0.01 | 85 | 1007.0 |
| 20260507071932 | 54 | 320 | 0.0 | 0.0 | 0.00 | 0.03 | 0.01 | 84 | 1006.6 |
| 20260507071653 | 54 | 303 | 0.0 | 0.0 | 0.00 | 0.03 | 0.01 | 84 | 1006.3 |
| 20260507070931 | 54 | 303 | 0.0 | 0.0 | 0.00 | 0.03 | 0.01 | 84 | 1006.3 |
| 20260507070431 | 54 | 303 | 0.0 | 3.0 | 0.00 | 0.03 | 0.01 | 84 | 1006.1 |
| 20260507070410 | 54 | 303 | 0.0 | 3.0 | 0.00 | 0.03 | 0.01 | 83 | 1006.0 |
| 20260507065659 | 54 | 306 | 0.0 | 2.0 | 0.00 | 0.03 | 0.01 | 84 | 1006.3 |
| 20260507064931 | 54 | 258 | 0.0 | 1.0 | 0.00 | 0.03 | 0.01 | 85 | 1006.3 |
| 20260507064657 | 54 | 306 | 0.0 | 1.0 | 0.00 | 0.03 | 0.01 | 85 | 1006.3 |
| 20260507064415 | 55 | 114 | 0.0 | 1.0 | 0.00 | 0.03 | 0.01 | 85 | 1006.4 |
| 20260507063657 | 55 | 313 | 0.0 | 0.0 | 0.00 | 0.03 | 0.01 | 88 | 1006.4 |
| 20260507062931 | 56 | 319 | 0.0 | 0.0 | 0.00 | 0.03 | 0.01 | 89 | 1006.5 |
| 20260507062431 | 56 | 316 | 0.0 | 0.0 | 0.00 | 0.03 | 0.01 | 89 | 1006.5 |
| 20260507061931 | 56 | 314 | 0.0 | 0.0 | 0.00 | 0.03 | 0.01 | 89 | 1006.4 |
| 20260507061432 | 0 | 0.0 | 0.0 | 0.00 | 0.03 | 0.01 | 1006.3 | ||
| 20260507060903 | 0 | 0.0 | 0.0 | 0.00 | 0.03 | 0.01 | 1006.3 | ||
| 20260507060628 | 56 | 307 | 0.0 | 0.0 | 0.00 | 0.03 | 0.01 | 89 | 1006.4 |
| 20260507055905 | 56 | 307 | 0.0 | 0.0 | 0.00 | 0.03 | 0.01 | 89 | 1006.5 |
| 20260507055403 | 56 | 307 | 0.0 | 0.0 | 0.01 | 0.03 | 0.01 | 89 | 1006.6 |
| 20260507054902 | 57 | 327 | 0.0 | 0.0 | 0.01 | 0.03 | 0.01 | 89 | 1006.6 |
| 20260507054623 | 57 | 329 | 0.0 | 1.0 | 0.01 | 0.03 | 0.01 | 89 | 1006.8 |
| 20260507053902 | 57 | 329 | 0.0 | 1.0 | 0.01 | 0.03 | 0.01 | 89 | 1006.7 |
| 20260507053402 | 57 | 326 | 0.0 | 1.0 | 0.01 | 0.03 | 0.01 | 89 | 1006.6 |
| 20260507052903 | 57 | 0 | 0.0 | 2.0 | 0.01 | 0.03 | 0.01 | 89 | 1006.6 |
| 20260507052402 | 57 | 329 | 0.0 | 2.0 | 0.01 | 0.03 | 0.01 | 89 | 1007.0 |
| 20260507051902 | 57 | 302 | 0.0 | 1.0 | 0.01 | 0.03 | 0.01 | 89 | 1006.8 |
| 20260507051402 | 57 | 279 | 0.0 | 2.0 | 0.01 | 0.03 | 0.01 | 89 | 1006.8 |
| 20260507050903 | 57 | 300 | 0.0 | 4.0 | 0.01 | 0.03 | 0.01 | 89 | 1006.7 |
| 20260507050404 | 57 | 323 | 0.0 | 4.0 | 0.01 | 0.03 | 0.01 | 90 | 1006.5 |
| 20260507045903 | 58 | 319 | 0.0 | 3.0 | 0.01 | 0.02 | 0.01 | 91 | 1006.7 |
| 20260507045402 | 58 | 303 | 0.0 | 1.0 | 0.00 | 0.02 | 0.00 | 91 | 1006.7 |
| 20260507044902 | 58 | 317 | 0.0 | 0.0 | 0.00 | 0.02 | 0.00 | 92 | 1006.8 |
| 20260507044404 | 58 | 344 | 0.0 | 0.0 | 0.00 | 0.02 | 0.00 | 92 | 1006.6 |
| 20260507043902 | 58 | 274 | 0.0 | 0.0 | 0.00 | 0.02 | 0.00 | 92 | 1006.6 |
| 20260507043403 | 59 | 321 | 0.0 | 0.0 | 0.00 | 0.02 | 0.00 | 92 | 1006.6 |
| 20260507042902 | 59 | 283 | 0.0 | 0.0 | 0.00 | 0.02 | 0.00 | 92 | 1006.6 |
| 20260507042403 | 59 | 298 | 0.0 | 0.0 | 0.00 | 0.02 | 0.00 | 92 | 1006.6 |
| 20260507041903 | 59 | 298 | 0.0 | 0.0 | 0.00 | 0.02 | 0.00 | 92 | 1006.7 |
| 20260507041403 | 59 | 298 | 0.0 | 0.0 | 0.00 | 0.02 | 0.00 | 92 | 1006.5 |
| 20260507040902 | 59 | 299 | 0.0 | 0.0 | 0.00 | 0.02 | 0.00 | 92 | 1006.6 |
| 20260507040404 | 59 | 299 | 0.0 | 0.0 | 0.00 | 0.02 | 0.00 | 92 | 1006.7 |
| 20260507035903 | 59 | 299 | 0.0 | 0.0 | 0.00 | 0.02 | 0.02 | 92 | 1006.6 |
| 20260507035404 | 59 | 299 | 0.0 | 0.0 | 0.00 | 0.02 | 0.02 | 92 | 1006.7 |
| 20260507034903 | 59 | 299 | 0.0 | 7.0 | 0.00 | 0.02 | 0.02 | 92 | 1006.7 |
| 20260507034404 | 59 | 309 | 1.0 | 7.0 | 0.00 | 0.02 | 0.02 | 92 | 1006.8 |
| 20260507033903 | 59 | 258 | 0.0 | 2.0 | 0.00 | 0.02 | 0.02 | 91 | 1006.7 |
| 20260507033403 | 59 | 305 | 0.0 | 0.0 | 0.00 | 0.02 | 0.02 | 92 | 1006.7 |
| 20260507032901 | 59 | 302 | 0.0 | 0.0 | 0.00 | 0.02 | 0.02 | 92 | 1006.8 |
| 20260507032403 | 59 | 210 | 0.0 | 6.0 | 0.00 | 0.02 | 0.02 | 92 | 1006.6 |
| 20260507031902 | 59 | 275 | 0.0 | 6.0 | 0.00 | 0.02 | 0.02 | 92 | 1006.5 |
| 20260507031849 | 59 | 224 | 0.0 | 2.0 | 0.00 | 0.02 | 0.02 | 92 | 1006.4 |
| 20260507030902 | 59 | 196 | 0.0 | 1.0 | 0.00 | 0.02 | 0.02 | 92 | 1006.4 |
| 20260507030405 | 59 | 269 | 0.0 | 1.0 | 0.00 | 0.02 | 0.02 | 92 | 1006.5 |
| 20260507025904 | 59 | 317 | 0.0 | 0.0 | 0.00 | 0.02 | 0.02 | 92 | 1006.3 |
| 20260507025402 | 59 | 3 | 0.0 | 0.0 | 0.00 | 0.02 | 0.02 | 92 | 1006.4 |
| 20260507024902 | 59 | 283 | 0.0 | 0.0 | 0.00 | 0.02 | 0.02 | 92 | 1006.4 |
| 20260507024403 | 59 | 340 | 0.0 | 0.0 | 0.00 | 0.02 | 0.02 | 92 | 1006.3 |
| 20260507023902 | 59 | 0 | 0.0 | 1.0 | 0.00 | 0.02 | 0.02 | 92 | 1006.3 |
| 20260507023402 | 59 | 210 | 0.0 | 1.0 | 0.00 | 0.02 | 0.02 | 92 | 1006.2 |
| 20260507022902 | 59 | 210 | 0.0 | 0.0 | 0.00 | 0.02 | 0.02 | 92 | 1006.3 |
| 20260507022404 | 59 | 212 | 0.0 | 0.0 | 0.00 | 0.02 | 0.02 | 92 | 1006.3 |
| 20260507021901 | 59 | 216 | 0.0 | 0.0 | 0.00 | 0.02 | 0.02 | 92 | 1006.4 |
| 20260507021402 | 58 | 213 | 0.0 | 0.0 | 0.00 | 0.02 | 0.02 | 92 | 1006.4 |
| 20260507020903 | 58 | 209 | 0.0 | 0.0 | 0.00 | 0.02 | 0.02 | 92 | 1006.4 |
| 20260507020402 | 58 | 206 | 0.0 | 0.0 | 0.00 | 0.02 | 0.02 | 92 | 1006.4 |
| 20260507020130 | 58 | 204 | 0.0 | 0.0 | 0.00 | 0.02 | 0.02 | 92 | 1006.4 |
| 20260507015402 | 58 | 283 | 0.0 | 0.0 | 0.00 | 0.02 | 0.02 | 92 | 1006.3 |
| 20260507014904 | 58 | 214 | 0.0 | 2.0 | 0.00 | 0.02 | 0.02 | 92 | 1006.3 |
| 20260507014620 | 58 | 244 | 0.0 | 2.0 | 0.00 | 0.02 | 0.02 | 92 | 1006.4 |
| 20260507013904 | 58 | 190 | 0.0 | 0.0 | 0.00 | 0.02 | 0.02 | 92 | 1006.3 |
| 20260507013402 | 58 | 199 | 0.0 | 0.0 | 0.00 | 0.02 | 0.02 | 92 | 1006.3 |
| 20260507013128 | 58 | 195 | 0.0 | 0.0 | 0.00 | 0.02 | 0.02 | 92 | 1006.2 |
| 20260507012402 | 58 | 196 | 0.0 | 0.0 | 0.00 | 0.02 | 0.02 | 92 | 1006.5 |
| 20260507012127 | 58 | 195 | 0.0 | 0.0 | 0.00 | 0.02 | 0.02 | 93 | 1006.6 |
| 20260507011404 | 58 | 190 | 0.0 | 3.0 | 0.00 | 0.02 | 0.02 | 93 | 1006.7 |
| 20260507010903 | 58 | 0 | 0.0 | 3.0 | 0.00 | 0.02 | 0.02 | 93 | 1006.7 |
| 20260507010403 | 58 | 276 | 0.0 | 2.0 | 0.00 | 0.02 | 0.02 | 93 | 1006.7 |
| 20260507005908 | 58 | 161 | 0.0 | 0.0 | 0.00 | 0.02 | 0.02 | 93 | 1006.7 |
| 20260507005402 | 58 | 251 | 0.0 | 0.0 | 0.00 | 0.02 | 0.02 | 92 | 1006.7 |
| 20260507004905 | 58 | 251 | 0.0 | 0.0 | 0.00 | 0.02 | 0.02 | 92 | 1006.7 |
| 20260507004402 | 58 | 271 | 0.0 | 0.0 | 0.00 | 0.02 | 0.02 | 92 | 1006.8 |
| 20260507003904 | 57 | 234 | 0.0 | 1.0 | 0.00 | 0.02 | 0.02 | 92 | 1006.7 |
| 20260507003403 | 57 | 195 | 0.0 | 7.0 | 0.00 | 0.02 | 0.02 | 92 | 1006.6 |
| 20260507002903 | 57 | 235 | 0.0 | 7.0 | 0.00 | 0.02 | 0.02 | 92 | 1006.8 |
| 20260507002409 | 57 | 172 | 0.0 | 2.0 | 0.00 | 0.02 | 0.02 | 92 | 1006.5 |
| 20260507002404 | 57 | 195 | 0.0 | 3.0 | 0.00 | 0.02 | 0.02 | 92 | 1006.7 |
| 20260507001404 | 57 | 185 | 0.0 | 4.0 | 0.00 | 0.02 | 0.02 | 92 | 1006.5 |
| 20260507000904 | 57 | 207 | 0.0 | 4.0 | 0.00 | 0.02 | 0.02 | 92 | 1006.5 |
| 20260507000405 | 57 | 200 | 0.0 | 1.0 | 0.00 | 0.02 | 0.02 | 92 | 1006.5 |
| 20260506235901 | 57 | 245 | 0.0 | 1.0 | 0.00 | 0.02 | 0.02 | 92 | 1006.5 |
| 20260506235359 | 58 | 261 | 0.0 | 1.0 | 0.00 | 0.02 | 0.02 | 92 | 1006.3 |
| 20260506234852 | 58 | 220 | 0.0 | 1.0 | 0.00 | 0.02 | 0.02 | 92 | 1006.5 |
| 20260506234352 | 58 | 227 | 0.0 | 2.0 | 0.00 | 0.02 | 0.02 | 92 | 1006.5 |
| 20260506233854 | 58 | 275 | 0.0 | 2.0 | 0.00 | 0.02 | 0.02 | 92 | 1006.3 |
| 20260506233350 | 58 | 261 | 0.0 | 2.0 | 0.00 | 0.02 | 0.02 | 91 | 1006.3 |
| 20260506232849 | 58 | 227 | 0.0 | 1.0 | 0.00 | 0.02 | 0.02 | 91 | 1006.3 |
| 20260506232331 | 58 | 227 | 0.0 | 1.0 | 0.00 | 0.02 | 0.02 | 91 | 1006.4 |
| 20260506231832 | 58 | 179 | 0.0 | 1.0 | 0.00 | 0.02 | 0.02 | 91 | 1006.5 |
| 20260506231331 | 58 | 199 | 0.0 | 1.0 | 0.00 | 0.02 | 0.02 | 91 | 1006.3 |
| 20260506230832 | 58 | 193 | 0.0 | 3.0 | 0.00 | 0.02 | 0.02 | 91 | 1006.5 |
| 20260506230331 | 58 | 204 | 0.0 | 3.0 | 0.00 | 0.02 | 0.02 | 90 | 1006.4 |
| 20260506230056 | 59 | 195 | 0.0 | 1.0 | 0.01 | 0.02 | 0.02 | 90 | 1006.4 |
| 20260506225331 | 59 | 203 | 0.0 | 0.0 | 0.01 | 0.02 | 0.02 | 90 | 1006.4 |
| 20260506224833 | 59 | 214 | 0.0 | 0.0 | 0.01 | 0.02 | 0.02 | 91 | 1006.5 |
| 20260506224332 | 59 | 213 | 0.0 | 0.0 | 0.01 | 0.02 | 0.02 | 91 | 1006.4 |
| 20260506223832 | 59 | 216 | 0.0 | 0.0 | 0.01 | 0.02 | 0.02 | 91 | 1006.4 |
| 20260506223332 | 59 | 264 | 0.0 | 1.0 | 0.01 | 0.02 | 0.02 | 91 | 1006.3 |
| 20260506222833 | 59 | 207 | 0.0 | 2.0 | 0.01 | 0.02 | 0.02 | 91 | 1006.3 |
| 20260506222330 | 59 | 309 | 0.0 | 2.0 | 0.01 | 0.02 | 0.02 | 91 | 1006.3 |
| 20260506221831 | 59 | 212 | 0.0 | 4.0 | 0.01 | 0.02 | 0.02 | 91 | 1006.5 |
| 20260506221331 | 59 | 219 | 0.0 | 4.0 | 0.01 | 0.02 | 0.02 | 91 | 1006.4 |
| 20260506220831 | 59 | 183 | 0.0 | 3.0 | 0.01 | 0.02 | 0.02 | 91 | 1006.6 |
| 20260506220330 | 59 | 210 | 0.0 | 2.0 | 0.01 | 0.02 | 0.02 | 91 | 1006.7 |
| 20260506215831 | 0 | 192 | 0.0 | 0.0 | 0.00 | 0.02 | 0.02 | 1006.8 | |
| 20260506215331 | 59 | 248 | 0.0 | 1.0 | 0.00 | 0.02 | 0.02 | 90 | 1006.8 |
| 20260506214831 | 59 | 248 | 0.0 | 1.0 | 0.00 | 0.02 | 0.02 | 90 | 1006.8 |
| 20260506214331 | 59 | 165 | 0.0 | 0.0 | 0.01 | 0.02 | 0.02 | 90 | 1006.7 |
| 20260506213832 | 59 | 172 | 0.0 | 1.0 | 0.01 | 0.02 | 0.02 | 90 | 1006.8 |
| 20260506213331 | 59 | 217 | 0.0 | 1.0 | 0.01 | 0.02 | 0.02 | 90 | 1006.8 |
| 20260506212823 | 59 | 200 | 0.0 | 2.0 | 0.01 | 0.02 | 0.02 | 90 | 1006.9 |
| 20260506212324 | 59 | 192 | 0.0 | 2.0 | 0.01 | 0.02 | 0.02 | 90 | 1007.1 |
| 20260506211822 | 59 | 199 | 0.0 | 2.0 | 0.01 | 0.02 | 0.02 | 90 | 1007.1 |
| 20260506211321 | 59 | 282 | 0.0 | 2.0 | 0.01 | 0.02 | 0.02 | 90 | 1007.0 |
| 20260506211315 | 59 | 185 | 0.0 | 5.0 | 0.01 | 0.02 | 0.02 | 90 | 1007.2 |
| 20260506210319 | 59 | 193 | 0.0 | 5.0 | 0.01 | 0.02 | 0.02 | 90 | 1007.1 |
| 20260506205820 | 59 | 214 | 0.0 | 2.0 | 0.01 | 0.01 | 0.02 | 90 | 1007.1 |
| 20260506205540 | 60 | 209 | 0.0 | 2.0 | 0.02 | 0.01 | 0.02 | 89 | 1007.1 |
| 20260506204819 | 60 | 197 | 0.0 | 1.0 | 0.02 | 0.01 | 0.02 | 89 | 1007.2 |
| 20260506204320 | 60 | 259 | 0.0 | 0.0 | 0.01 | 0.01 | 0.01 | 88 | 1007.3 |
| 20260506203819 | 60 | 186 | 0.0 | 1.0 | 0.01 | 0.01 | 0.01 | 88 | 1007.4 |
| 20260506203318 | 60 | 178 | 0.0 | 1.0 | 0.01 | 0.01 | 0.01 | 88 | 1007.4 |
| 20260506202819 | 60 | 173 | 0.0 | 1.0 | 0.01 | 0.01 | 0.01 | 88 | 1007.4 |
| 20260506202806 | 60 | 169 | 0.0 | 5.0 | 0.01 | 0.01 | 0.01 | 87 | 1007.4 |
| 20260506201818 | 60 | 180 | 0.0 | 5.0 | 0.01 | 0.01 | 0.01 | 87 | 1007.5 |
| 20260506201317 | 61 | 209 | 0.0 | 0.0 | 0.01 | 0.01 | 0.01 | 87 | 1007.5 |
| 20260506200819 | 61 | 185 | 0.0 | 0.0 | 0.01 | 0.01 | 0.01 | 87 | 1007.4 |
| 20260506200803 | 61 | 161 | 0.0 | 1.0 | 0.01 | 0.01 | 0.01 | 87 | 1007.5 |
| 20260506195819 | 61 | 186 | 0.0 | 1.0 | 0.01 | 0.00 | 0.01 | 86 | 1007.5 |
| 20260506195317 | 61 | 228 | 0.0 | 3.0 | 0.00 | 0.00 | 0.00 | 86 | 1007.5 |
| 20260506195038 | 62 | 203 | 0.0 | 3.0 | 0.00 | 0.00 | 0.00 | 85 | 1007.4 |
| 20260506194317 | 62 | 171 | 0.0 | 1.0 | 0.00 | 0.00 | 0.00 | 84 | 1007.3 |
| 20260506193820 | 62 | 202 | 0.0 | 1.0 | 0.00 | 0.00 | 0.00 | 83 | 1007.3 |
| 20260506193317 | 62 | 214 | 0.0 | 7.0 | 0.00 | 0.00 | 0.00 | 82 | 1007.5 |
| 20260506192817 | 63 | 310 | 1.0 | 7.0 | 0.00 | 0.00 | 0.00 | 82 | 1007.8 |
| 20260506192542 | 63 | 186 | 0.0 | 1.0 | 0.00 | 0.00 | 0.00 | 81 | 1007.7 |
| 20260506191819 | 64 | 258 | 0.0 | 0.0 | 0.00 | 0.00 | 0.00 | 80 | 1007.7 |
| 20260506191535 | 64 | 274 | 0.0 | 9.0 | 0.00 | 0.00 | 0.00 | 79 | 1007.6 |
| 20260506190818 | 64 | 166 | 0.0 | 9.0 | 0.00 | 0.00 | 0.00 | 79 | 1007.7 |
| 20260506190316 | 65 | 262 | 0.0 | 4.0 | 0.00 | 0.00 | 0.00 | 77 | 1007.7 |
| 20260506190041 | 66 | 193 | 0.0 | 0.0 | 0.00 | 0.00 | 0.00 | 72 | 1007.8 |
| 20260506185314 | 67 | 180 | 0.0 | 0.0 | 0.00 | 0.00 | 0.00 | 72 | 1007.7 |
| 20260506184813 | 67 | 180 | 0.0 | 1.0 | 0.00 | 0.00 | 0.00 | 72 | 1007.7 |
| 20260506184312 | 67 | 227 | 0.0 | 1.0 | 0.00 | 0.00 | 0.00 | 71 | 1007.7 |
| 20260506183813 | 67 | 209 | 0.0 | 1.0 | 0.00 | 0.00 | 0.00 | 71 | 1007.7 |
| 20260506183313 | 68 | 161 | 0.0 | 1.0 | 0.00 | 0.00 | 0.00 | 70 | 1007.7 |
| 20260506182813 | 68 | 255 | 0.0 | 1.0 | 0.00 | 0.00 | 0.00 | 70 | 1007.9 |
| 20260506182311 | 68 | 142 | 0.0 | 2.0 | 0.00 | 0.00 | 0.00 | 68 | 1007.9 |
| 20260506181812 | 69 | 127 | 0.0 | 2.0 | 0.00 | 0.00 | 0.00 | 68 | 1008.0 |
| 20260506181312 | 69 | 269 | 0.0 | 3.0 | 0.00 | 0.00 | 0.00 | 68 | 1007.9 |
| 20260506181303 | 69 | 271 | 0.0 | 3.0 | 0.00 | 0.00 | 0.00 | 67 | 1007.8 |
| 20260506180311 | 69 | 217 | 0.0 | 0.0 | 0.00 | 0.00 | 0.00 | 66 | 1007.9 |
| 20260506175813 | 69 | 255 | 0.0 | 10.0 | 0.00 | 0.00 | 0.00 | 67 | 1008.0 |
| 20260506175311 | 70 | 182 | 2.0 | 10.0 | 0.00 | 0.00 | 0.00 | 66 | 1008.0 |
| 20260506174811 | 70 | 224 | 0.0 | 1.0 | 0.00 | 0.00 | 0.00 | 65 | 1008.2 |
| 20260506174310 | 70 | 183 | 0.0 | 5.0 | 0.00 | 0.00 | 0.00 | 66 | 1008.1 |
| 20260506173813 | 70 | 192 | 0.0 | 11.0 | 0.00 | 0.00 | 0.00 | 64 | 1008.0 |
| 20260506173310 | 70 | 268 | 2.0 | 11.0 | 0.00 | 0.00 | 0.00 | 64 | 1008.2 |
| 20260506172811 | 71 | 165 | 0.0 | 7.0 | 0.00 | 0.00 | 0.00 | 63 | 1008.3 |
| 20260506172311 | 71 | 207 | 0.0 | 4.0 | 0.00 | 0.00 | 0.00 | 63 | 1008.3 |
| 20260506171807 | 72 | 255 | 0.0 | 7.0 | 0.00 | 0.00 | 0.00 | 62 | 1008.5 |
| 20260506171753 | 72 | 275 | 1.0 | 7.0 | 0.00 | 0.00 | 0.00 | 63 | 1008.1 |
| 20260506170808 | 71 | 220 | 0.0 | 5.0 | 0.00 | 0.00 | 0.00 | 63 | 1008.2 |
| 20260506170309 | 71 | 281 | 1.0 | 5.0 | 0.00 | 0.00 | 0.00 | 63 | 1008.2 |
| 20260506165810 | 72 | 275 | 0.0 | 2.0 | 0.00 | 0.00 | 0.00 | 63 | 1008.3 |
| 20260506165309 | 72 | 176 | 0.0 | 5.0 | 0.00 | 0.00 | 0.00 | 63 | 1008.4 |
| 20260506165254 | 71 | 307 | 0.0 | 5.0 | 0.00 | 0.00 | 0.00 | 63 | 1008.4 |
| 20260506164308 | 71 | 140 | 0.0 | 0.0 | 0.00 | 0.00 | 0.00 | 64 | 1008.5 |
| 20260506164026 | 71 | 178 | 0.0 | 4.0 | 0.00 | 0.00 | 0.00 | 65 | 1008.6 |
| 20260506163528 | 71 | 178 | 0.0 | 4.0 | 0.00 | 0.00 | 0.00 | 64 | 1008.6 |
| 20260506162808 | 71 | 351 | 0.0 | 7.0 | 0.00 | 0.00 | 0.00 | 64 | 1008.7 |
| 20260506162307 | 71 | 345 | 0.0 | 7.0 | 0.00 | 0.00 | 0.00 | 63 | 1008.9 |
| 20260506161808 | 71 | 176 | 0.0 | 2.0 | 0.00 | 0.00 | 0.00 | 64 | 1008.8 |
| 20260506161528 | 71 | 196 | 0.0 | 1.0 | 0.00 | 0.00 | 0.00 | 62 | 1008.9 |
| 20260506160808 | 71 | 204 | 0.0 | 1.0 | 0.00 | 0.00 | 0.00 | 62 | 1009.0 |
| 20260506160307 | 72 | 252 | 0.0 | 2.0 | 0.00 | 0.00 | 0.00 | 63 | 1009.1 |
| 20260506160032 | 72 | 240 | 0.0 | 2.0 | 0.00 | 0.00 | 0.00 | 63 | 1009.1 |
| 20260506155532 | 72 | 220 | 0.0 | 5.0 | 0.00 | 0.00 | 0.00 | 64 | 1009.2 |
| 20260506155028 | 71 | 216 | 1.0 | 5.0 | 0.00 | 0.00 | 0.00 | 64 | 1009.1 |
| 20260506154307 | 71 | 197 | 0.0 | 3.0 | 0.00 | 0.00 | 0.00 | 64 | 1009.3 |
| 20260506153809 | 71 | 272 | 0.0 | 3.0 | 0.00 | 0.00 | 0.00 | 64 | 1009.4 |
| 20260506153306 | 71 | 207 | 0.0 | 3.0 | 0.00 | 0.00 | 0.00 | 63 | 1009.4 |
| 20260506152807 | 71 | 220 | 0.0 | 11.0 | 0.00 | 0.00 | 0.00 | 64 | 1009.4 |
| 20260506152306 | 71 | 292 | 0.0 | 11.0 | 0.00 | 0.00 | 0.00 | 64 | 1009.5 |
| 20260506151807 | 71 | 183 | 0.0 | 7.0 | 0.00 | 0.00 | 0.00 | 66 | 1009.5 |
| 20260506151532 | 71 | 309 | 0.0 | 3.0 | 0.00 | 0.00 | 0.00 | 67 | 1009.7 |
| 20260506150807 | 70 | 251 | 0.0 | 7.0 | 0.00 | 0.00 | 0.00 | 66 | 1009.6 |
| 20260506150306 | 70 | 165 | 0.0 | 7.0 | 0.00 | 0.00 | 0.00 | 66 | 1009.7 |
| 20260506150032 | 70 | 231 | 0.0 | 2.0 | 0.00 | 0.00 | 0.00 | 66 | 1009.8 |
| 20260506145524 | 70 | 258 | 0.0 | 2.0 | 0.00 | 0.00 | 0.00 | 67 | 1009.7 |
| 20260506144806 | 70 | 290 | 0.0 | 1.0 | 0.00 | 0.00 | 0.00 | 66 | 1009.7 |